Погода в Уеге

Погода в Уеге : погода сейчас, прогноз погоды и архив. Всё, что Вы хотите узнать о погоде в Уеге!

Поиск расширенной информации на нашем сайте:

Другие новости

Новости СМИ2

Главная страница сайта

Новости сайта

03.07.2017

Напоминаем, что на нашем специализированном сайте Метеоцентр.Азия вы можете получить высокодетализированные автоматические прогнозы погоды по пунктам России, СНГ и мира в авиационном формате (включающие направление и скорость ветра, видимость, явления погоды, количество и форму облачности, нижнюю и верхнюю границу облачности).

Рекомендуем: Полезные советы для девушек и женщин http://best-womens.ru

Погода в Уеге - сегодня

Время (UTC), дата Ветер
(°,м/с) 
Видим.   Явления Облачность Т
(°С)
Тd
(°С)
f(%) Тe
(°С)
Pmin
(гПа)
dP
(гПа)
Po
(мм)
O2
(г/м3)
Тmin Tmax R s Состояние
почвы
00 20.02.18 020 (С) 20000 м    9/9 1000 м 
[Sc]
-16.8 -22.5 61 -19  1002.1  0.1  713  308           
03 20.02.18 350 (С) 20000 м    9/9 1000 м 
[Sc]
-13.2 -20.3 55 -17  1000.7  -0.6  713  303           
06 20.02.18 360 (С) 20000 м    4/1 1000 м верхняя 
[Sc|Ci fib]
-12.5 -21 49 -16  1000.5  0.1  712  302           
12 20.02.18 340 (С) 20000 м    1/0 верхняя 
[Ci fib]
-25 -27.3 81 -26  1005.4  714  318           
15 20.02.18 340 (С) 20000 м    ясно 
-26.3 -28.7 80 -30  1006.5  0.8  715  320           
18 20.02.18 340 (С) 20000 м    ясно 
-26.9 -29.7 77 -30  1007.9  1.2  716  322           
00 21.02.18 350 (С) 20000 м    8/3 1000 м верхняя 
[Sc|Ci fib]
-21.9 -27.4 61 -25  1009.6  1.6  718  316           
03 21.02.18 360 (С) 20000 м    10/5 1000 м верхняя 
[Sc|Cs]
-17.2 -25.7 48 -20  1008.9  0.3  718  310           
06 21.02.18 240 (ЮЗ) 20000 м    3/3 1000 м 
[Sc]
-14.1 -24.6 41 -14  1008.8  0.5  718  307           
12 21.02.18 320 (СЗ) 20000 м    4/4 1000 м 
[Sc]
-22.2 -26.2 70 -23  1014  1.5  721  318           
15 21.02.18 360 (С) 20000 м    10/3 1000 м верхняя 
[Sc|Cs]
-22.1 -25.7 73 -22  1014.8  0.7  721  318           
18 21.02.18 350 (С) 10 км  слаб. снег  10/4 1000 м верхняя 
[Sc|Cs]
-23.3 -26.2 77 -26  1015.6  0.6  722  320           
21 21.02.18 340 (С) 20000 м  {снег}  10/5 1000 м верхняя 
[Sc|Cs]
-23.8 -26.9 76 -27  1016.5  0.7  722  320  -25    0.0  21  равномерный
сухой снег
100% 
03 22.02.18 340 (С) 20000 м    9/0 средняя, верхняя 
[Ac trans|Ci fib]
-17.6 -24.6 54 -22  1016.1  -0.2  723  313           
06 22.02.18 350 (С) 20000 м    9/0 средняя, верхняя 
[Ac trans|Ci fib]
-16.2 -23.2 55 -20  1015.9  0.1  723  311           
09 22.02.18 330 (СЗ) 20000 м    10/3 1000 м верхняя 
[Sc|Cs]
-19.6 -23.7 70 -22  1018.2  1.5  724  316    -15.7       
12 22.02.18 350 (С) 20000 м    10/3 1000 м верхняя 
[Sc|Cs]
-20.2 -23 78 -23  1020  1.6  725  317           
15 22.02.18 350 (С) 20000 м    10/3 1000 м верхняя 
[Sc|Cs]
-22.7 -25.3 79 -26  1021.5  0.8  726  321           
18 22.02.18 010 (С) 20000 м    10/0 верхняя 
[Cs]
-24.3 -27.1 78 -27  1023  727  323           
00 23.02.18 020 (С) 20000 м    8/3 1000 м верхняя 
[Sc|Ci fib]
-21.5 -27.3 59 -26  1025.1  1.2  729  320           
06 23.02.18 340 (С) 20000 м  позёмок  3/0 верхняя 
[Ci fib]
-15.2 -24.7 44 -20  1023  -0.6  728  312           
15 23.02.18 360 (С) 20000 м  позёмок  10/3 1000 м верхняя 
[Sc|Cs]
-17.8 -26.5 47 -23  1022.1  -1.2  727  315           
21 23.02.18 010 (С) 20000 м    10/6 1000 м верхняя 
[Sc|Cs]
-15 -22.7 52 -19  1020.2  -0.2  726  311  -18.2      20  равномерный
сухой снег
100% 
03 24.02.18 350 (С) 20000 м    10/3 1000 м средняя, верхняя 
[Sc|Ac trans|Cs]
-9.8 -20.6 41 -12  1018.9  -0.3  726  305           
06 24.02.18 350 (С) 20000 м    10/10 1000 м 
[Sc]
-9.3 -20.1 41 -11  1019.7  0.9  727  305           
Время (UTC), дата Ветер
(°,м/с) 
Видим.   Явления Облачность Т
(°С)
Тd
(°С)
f(%) Тe
(°С)
Pmin
(гПа)
dP
(гПа)
Po
(мм)
O2
(г/м3)
Тmin Tmax R s Состояние
почвы

Для получения пояснительной информации подведите курсор к названию столбца.

ПОГОДА в Уеге - архив

Всё, что Вы хотите узнать о погоде в Уеге - удобно и подробно!

Выберите нужную дату (начиная с 1 января 2015* года) и нажмите кнопку "Найти".
Будут отображены архивные сводки погоды по пункту Уега, начиная с указанной даты.


Отображать данные в формате CSV (для использования в таблицах Excel)


Внимание! Наш архив погоды предназначен исключительно для личного некоммерческого использования в познавательных целях. Если Вам необходимы официальные справки о состоянии погоды (для производственных, юридических, коммерческих и т.п. целей), обращайтесь в органы Росгидромета.

*Примечание: данная дата относится к архиву по метеостанциям СССР (Россия, СНГ, Балтия).
Архив по метеостанциям Зарубежной Европы и Азии (кроме Китая) хранится 10 дней, по другим регионам земного шара (Китай, Африка, Америка, Австралия, Океания) - 1 день.

Уега - район местоположения метеостанции


Название, широта, долгота, высота метеостанции:
Уега 60.7°ш. 142.8°д. 398 м над ур. моря [Российская Федерация]

Дополнительная информация

В oтличие oт бoльшинства пoгoдных сайтoв мы публикуем пoдрoбную метеoинфoрмацию в детальнoм прoфессиoнальнoм фoрмате.

Характеристики температуры и влажнoсти вoздуха измеряются на высoте 2 м в тени вдали oт зданий и деревьев.
Скoрoсть ветра измеряется на высoте 10 м (на урoвне рoста челoвека скoрoсть ветра ниже в 1.5-2 раза). Если метеoстанция нахoдится в гoрoде или в лесу, тo скoрoсть ветра занижена на 2-4 м/с пo сравнению с oткрытым местoм. Скoрoсть ветра над акватoриями крупных рек и oзёр, а также на вершинах хoлмoв на 2-5 м/с выше, чем в oбычных услoвиях.
Атмoсфернoе давление в разных тoчках местнoсти мoжет значительнo oтличаться oт давления на метеoстанции, в зависимoсти oт услoвий рельефа (при пoдъёме на 10 м давление пoнижается примернo на 1 мм рт.ст.).